This is the latest recevied weather packets stored in our database for station/object OH2MUI. If no packets are shown the sender has not sent any weather packets the latest 10 day(s).
| Time | Temp. | Humidity | Pressure | Rain* | Wind** | Luminosity | Snow |
|---|---|---|---|---|---|---|---|
| 1777104312 | 8.33° C | 73% | 993.6 hPa | 0 mm | - | - | - |
| 1777103234 | 7.78° C | 76% | 994 hPa | 0 mm | - | - | - |
| 1777102052 | 7.22° C | 81% | 994.1 hPa | 0 mm | - | - | - |
| 1777100952 | 6.67° C | 84% | 994.3 hPa | 0 mm | - | - | - |
| 1777099884 | 6.67° C | 85% | 994.4 hPa | 0 mm | - | - | - |
| 1777098759 | 6.11° C | - | - | 0 mm | - | - | - |
| 1777098753 | 6.11° C | 86% | 994.4 hPa | 0 mm | - | - | - |
| 1777097691 | 5.56° C | 86% | 994.7 hPa | 0 mm | - | - | - |
| 1777096499 | 5.56° C | 87% | 994.8 hPa | 0 mm | - | - | - |
| 1777095372 | 5.56° C | 87% | 995.2 hPa | 0 mm | - | - | - |
| 1777094412 | 5° C | 86% | 995 hPa | 0 mm | - | - | - |
| 1777093249 | 5° C | 85% | 995.6 hPa | 0 mm | - | - | - |
| 1777092192 | 4.44° C | 85% | 995.7 hPa | 0 mm | - | - | - |
| 1777091179 | 4.44° C | 84% | 996.2 hPa | 0 mm | - | - | - |
| 1777090197 | -17.78° C | - | - | - | - | - | - |
| 1777090192 | 4.44° C | 82% | 996.8 hPa | 0 mm | - | - | - |
| 1777089052 | 4.44° C | 81% | 996.9 hPa | 0 mm | - | - | - |
| 1777087874 | 4.44° C | 79% | 997.3 hPa | 0 mm | - | - | - |
| 1777086689 | 4.44° C | - | - | 0 mm | - | - | - |
| 1777086684 | 4.44° C | 77% | 997.6 hPa | 0 mm | - | - | - |
| 1777085704 | 4.44° C | 75% | 998 hPa | 0 mm | - | - | - |
| 1777084684 | 4.44° C | 74% | 998.6 hPa | 0 mm | - | - | - |
| 1777083517 | 4.44° C | - | - | - | - | - | - |
| 1777083514 | 4.44° C | 74% | 999.3 hPa | 0 mm | - | - | - |
| 1777082509 | 4.44° C | 74% | 999.5 hPa | 0 mm | - | - | - |
* Rain latest hour (hover to see other rain measurements)
** Current wind speed in m/s (hover to see current wind gust speed)